Zurück zum Katalog

DELTA 1 DEB

AktivLEO
NORAD 10757·DEBRIS·🇺🇸 United States

Gestartet Jul 29, 1976 von Vandenberg Space Force Base

Loading…

Nächste Überflüge (nächste 24 Stunden)

TLE

AktuellSource: Space-Track

Epoche: Sep 14, 2026, 01:00 UTC

1 10757U 76077BE  26257.04180471  .00000432  00000-0  53658-2 0  9992
2 10757 101.9128 295.2589 0232033 252.0409 134.8351 12.00609929194354

Verfolge DELTA 1 DEB in Echtzeit mit AllMySat

Download on the App Store